This is the latest recevied weather packets stored in our database for station/object NC4M. If no packets are shown the sender has not sent any weather packets the latest 10 day(s).
| Time | Temp. | Humidity | Pressure | Rain* | Wind** | Luminosity | Snow |
|---|---|---|---|---|---|---|---|
| 1778003293 | 11.11° C | 81% | 1009.8 hPa | 0 mm | - | 149 W/m² | - |
| 1778002991 | 11.11° C | 80% | 1009.8 hPa | 0 mm | - | 138 W/m² | - |
| 1778002686 | 11.11° C | 81% | 1009.9 hPa | 1.27 mm | - | 155 W/m² | - |
| 1778002383 | 11.11° C | 76% | 1009.8 hPa | 0 mm | - | 222 W/m² | - |
| 1778002080 | 11.11° C | 76% | 1010.2 hPa | 0 mm | - | 175 W/m² | - |
| 1778001777 | 11.11° C | 76% | 1010.2 hPa | 0 mm | - | 100 W/m² | - |
| 1778001472 | 11.11° C | 76% | 1010.6 hPa | 0 mm | - | 59 W/m² | - |
| 1778001169 | 11.11° C | 76% | 1010.3 hPa | 0 mm | - | 79 W/m² | - |
| 1778000866 | 11.11° C | 79% | 1011.1 hPa | 0 mm | - | 60 W/m² | - |
| 1778000563 | 11.11° C | 79% | 1010.6 hPa | 0 mm | - | 66 W/m² | - |
| 1777999954 | 11.67° C | 79% | 1011.1 hPa | 0 mm | - | 42 W/m² | - |
| 1777999650 | 11.67° C | 79% | 1010.7 hPa | 0 mm | - | 48 W/m² | - |
| 1777999347 | 11.67° C | 79% | 1011.1 hPa | 0 mm | - | 43 W/m² | - |
| 1777999045 | 11.67° C | 79% | 1011.1 hPa | 0 mm | - | 45 W/m² | - |
| 1777998744 | 11.67° C | 80% | 1010.9 hPa | 0 mm | - | 52 W/m² | - |
| 1777998441 | 11.67° C | 80% | 1010.7 hPa | 0 mm | - | 51 W/m² | - |
| 1777998138 | 11.67° C | 79% | 1011.1 hPa | 0 mm | - | 46 W/m² | - |
| 1777997834 | 11.67° C | 78% | 1010.3 hPa | 0 mm | - | 79 W/m² | - |
| 1777997532 | 12.22° C | 77% | 1010 hPa | 0 mm | - | 132 W/m² | - |
| 1777997230 | 12.22° C | 78% | 1010 hPa | 0 mm | - | 133 W/m² | - |
| 1777996927 | 12.22° C | 77% | 1009.8 hPa | 0 mm | - | 150 W/m² | - |
| 1777996623 | 12.22° C | 78% | 1009.4 hPa | 0 mm | - | 171 W/m² | - |
| 1777996319 | 12.22° C | 78% | 1009.4 hPa | 0 mm | - | 239 W/m² | - |
| 1777996016 | 12.22° C | 77% | 1009.4 hPa | 0 mm | - | 232 W/m² | - |
| 1777995712 | 12.22° C | 77% | 1009.5 hPa | 0 mm | - | 169 W/m² | - |
* Rain latest hour (hover to see other rain measurements)
** Current wind speed in m/s (hover to see current wind gust speed)